Location: Northcutt
(34.7304°N, 84.4305°W)
Time: 11:26:18
(UTC+00:00)

Tiros 1 - All Passes

Search period start: 05 October 2022 00:00
Search period end: 15 October 2022 00:00
Orbit: 629 x 663 km, 48.4° (Epoch: 05 October)

Date Brightness Start Highest point End Pass type
(mag) Time Alt. Az. Time Alt. Az. Time Alt. Az.
05 Oct - 02:07:19 10° S 02:10:48 20° SE 02:14:19 10° E night (unlit)
05 Oct - 03:47:51 10° WSW 03:52:37 67° NW 03:57:25 10° NE night (unlit)
05 Oct - 05:31:50 10° WNW 05:35:28 21° NNW 05:39:07 10° NNE night (unlit)
05 Oct - 07:16:12 10° NNW 07:19:04 16° N 07:21:57 10° NE night (unlit)
05 Oct - 08:58:19 10° NW 09:02:29 29° NNE 09:06:36 10° E visible
05 Oct - 10:40:14 10° WNW 10:44:56 64° SW 10:49:34 10° SE visible
06 Oct - 02:31:33 10° SSW 02:36:09 49° SE 02:40:47 10° ENE night (unlit)
06 Oct - 04:14:03 10° W 04:18:27 35° NNW 04:22:51 10° NE night (unlit)
06 Oct - 05:58:42 10° NW 06:01:45 16° N 06:04:45 10° NNE night (unlit)
06 Oct - 07:41:59 10° NNW 07:45:23 19° NNE 07:48:45 10° ENE visible
06 Oct - 09:23:44 10° NW 09:28:23 53° NNE 09:32:59 10° ESE visible
06 Oct - 11:06:24 10° WNW 11:10:20 26° SW 11:14:13 10° S visible
07 Oct - 01:16:43 10° S 01:19:57 18° SE 01:23:12 10° E visible
07 Oct - 02:56:55 10° WSW 03:01:43 74° NW 03:06:31 10° NE night (unlit)
07 Oct - 04:40:47 10° WNW 04:44:30 22° NNW 04:48:15 10° NNE night (unlit)
07 Oct - 06:25:13 10° NW 06:28:05 16° N 06:30:57 10° NE night (unlit)
07 Oct - 08:07:26 10° NW 08:11:32 27° NNE 08:15:35 10° E visible
07 Oct - 09:49:19 10° WNW 09:54:03 72° SW 09:58:43 10° SE visible
08 Oct - 01:40:44 10° SSW 01:45:16 44° SE 01:49:49 10° ENE visible
08 Oct - 03:23:02 10° W 03:27:30 37° NNW 03:31:58 10° NE night (unlit)
08 Oct - 05:07:39 10° NW 05:10:44 17° N 05:13:50 10° NNE night (unlit)
08 Oct - 06:51:04 10° NNW 06:54:24 18° NNE 06:57:42 10° ENE night (unlit)
08 Oct - 08:32:50 10° NW 08:37:28 48° NNE 08:42:03 10° ESE visible
08 Oct - 10:15:22 10° WNW 10:19:29 29° SW 10:23:32 10° SSE visible
09 Oct - 00:26:11 10° SSE 00:29:06 16° SE 00:32:01 10° E visible
09 Oct - 02:05:59 10° SW 02:10:47 81° NW 02:15:37 10° NE visible
09 Oct - 03:49:42 10° WNW 03:53:32 23° NNW 03:57:22 10° NNE night (unlit)
09 Oct - 05:34:13 10° NW 05:37:05 15° N 05:39:58 10° NE night (unlit)
09 Oct - 07:16:33 10° NW 07:20:34 26° NNE 07:24:33 10° E night (unlit)
09 Oct - 08:58:22 10° NW 09:03:09 79° SW 09:07:52 10° SE visible
09 Oct - 10:43:08 10° WSW 10:44:42 11° SW 10:46:15 10° SSW visible
10 Oct - 00:49:57 10° SSW 00:54:23 39° SE 00:58:51 10° ENE visible
10 Oct - 02:32:02 10° W 02:36:33 40° NNW 02:41:05 10° NE visible
10 Oct - 04:16:35 10° NW 04:19:45 17° N 04:22:55 10° NNE night (unlit)
10 Oct - 06:00:09 10° NNW 06:03:24 18° NNE 06:06:40 10° NE night (unlit)
10 Oct - 07:41:56 10° NW 07:46:32 45° NNE 07:51:04 10° ESE night (unlit)
10 Oct - 09:24:20 10° WNW 09:28:36 33° SW 09:32:48 10° SSE visible
10 Oct - 23:35:43 10° SSE 23:38:14 14° SE 23:40:45 10° E visible
11 Oct - 01:15:05 10° SW 01:19:52 89° NW 01:24:42 10° NE visible
11 Oct - 02:58:38 10° WNW 03:02:33 24° NNW 03:06:29 10° NE visible
11 Oct - 04:43:13 10° NW 04:46:05 15° N 04:48:57 10° NE night (unlit)
11 Oct - 06:25:39 10° NW 06:29:36 25° NNE 06:33:31 10° ENE night (unlit)
11 Oct - 08:07:27 10° NW 08:12:15 87° SW 08:16:59 10° SE night (unlit)
11 Oct - 09:51:38 10° W 09:53:50 13° SW 09:56:02 10° SSW visible
11 Oct - 23:59:10 10° SSW 00:03:29 35° SE 00:07:51 10° ENE visible
12 Oct - 01:41:02 10° WSW 01:45:36 43° NNW 01:50:12 10° NE visible
12 Oct - 03:25:31 10° NW 03:28:45 18° N 03:31:59 10° NNE night (unlit)
12 Oct - 05:09:13 10° NNW 05:12:25 17° N 05:15:35 10° NE night (unlit)
12 Oct - 06:51:02 10° NW 06:55:35 41° NNE 07:00:05 10° E night (unlit)
12 Oct - 08:33:20 10° WNW 08:37:44 37° SW 08:42:03 10° SSE night (unlit)
12 Oct - 22:45:22 10° SSE 22:47:22 13° SE 22:49:23 10° ESE daylight
13 Oct - 00:24:11 10° SW 00:28:57 83° SE 00:33:46 10° NE visible
13 Oct - 02:07:34 10° WNW 02:11:34 25° NNW 02:15:34 10° NE visible
13 Oct - 03:52:11 10° NW 03:55:04 15° N 03:57:56 10° NE night (unlit)
13 Oct - 05:34:45 10° NW 05:38:37 23° NNE 05:42:27 10° ENE night (unlit)
13 Oct - 07:16:31 10° NW 07:21:19 85° NE 07:26:05 10° SE night (unlit)
13 Oct - 09:00:18 10° W 09:02:58 15° SW 09:05:39 10° SSW night (unlit)
13 Oct - 23:08:25 10° SSW 23:12:35 31° SE 23:16:49 10° ENE daylight
14 Oct - 00:50:02 10° WSW 00:54:38 47° NNW 00:59:17 10° NE visible
14 Oct - 02:34:26 10° NW 02:37:44 18° NNW 02:41:03 10° NNE visible
14 Oct - 04:18:16 10° NNW 04:21:24 17° N 04:24:31 10° NE night (unlit)
14 Oct - 06:00:07 10° NW 06:04:37 38° NNE 06:09:05 10° E night (unlit)
14 Oct - 07:42:20 10° WNW 07:46:49 41° SW 07:51:16 10° SSE night (unlit)
14 Oct - 21:55:16 10° SE 21:56:30 11° SE 21:57:44 10° ESE daylight
14 Oct - 23:33:17 10° SW 23:38:01 76° SE 23:42:49 10° NE visible
